TimeEST,TemperatureF,Dew PointF,Humidity,Sea Level PressureIn,VisibilityMPH,Wind Direction,Wind SpeedMPH,Gust SpeedMPH,PrecipitationIn,Events,Conditions,WindDirDegrees,DateUTC
12:54 AM,32.0,19.0,59,30.22,10.0,NE,5.8,-,N/A,,Overcast,40,2013-03-07 05:54:00
1:54 AM,32.0,19.0,59,30.22,10.0,NE,5.8,-,N/A,,Overcast,40,2013-03-07 06:54:00
2:54 AM,30.9,19.0,61,30.21,10.0,Variable,5.8,-,N/A,,Overcast,0,2013-03-07 07:54:00
3:54 AM,30.9,19.0,61,30.22,10.0,NE,6.9,-,N/A,,Overcast,40,2013-03-07 08:54:00
4:54 AM,30.9,19.0,61,30.22,10.0,NNE,5.8,-,N/A,,Overcast,20,2013-03-07 09:54:00
5:54 AM,30.9,18.0,59,30.22,10.0,NE,4.6,-,N/A,,Overcast,40,2013-03-07 10:54:00
6:54 AM,30.9,17.1,57,30.22,10.0,NE,4.6,-,N/A,,Overcast,40,2013-03-07 11:54:00
7:54 AM,30.0,18.0,61,30.23,10.0,NNE,8.1,-,N/A,,Overcast,20,2013-03-07 12:54:00
8:54 AM,30.0,19.0,64,30.22,10.0,NNE,5.8,-,N/A,,Overcast,30,2013-03-07 13:54:00
9:27 AM,30.2,19.4,64,30.18,10.0,NE,8.1,-,N/A,,Overcast,50,2013-03-07 14:27:00
9:54 AM,30.9,19.0,61,30.22,10.0,NNE,8.1,-,N/A,,Overcast,20,2013-03-07 14:54:00
10:54 AM,33.1,19.9,59,30.20,10.0,North,5.8,-,N/A,,Overcast,360,2013-03-07 15:54:00
11:54 AM,34.0,19.9,56,30.19,10.0,North,5.8,-,N/A,,Overcast,360,2013-03-07 16:54:00
12:54 PM,35.1,19.9,54,30.19,10.0,North,9.2,-,N/A,,Overcast,10,2013-03-07 17:54:00
1:54 PM,34.0,19.9,56,30.19,10.0,North,8.1,-,N/A,,Overcast,360,2013-03-07 18:54:00
2:54 PM,34.0,21.0,59,30.19,10.0,North,6.9,-,N/A,,Overcast,350,2013-03-07 19:54:00
3:54 PM,34.0,19.9,56,30.20,10.0,North,8.1,-,N/A,,Overcast,360,2013-03-07 20:54:00
4:54 PM,34.0,21.0,59,30.20,10.0,North,4.6,-,N/A,,Overcast,350,2013-03-07 21:54:00
5:54 PM,33.1,21.0,61,30.21,10.0,NNE,4.6,-,N/A,,Overcast,20,2013-03-07 22:54:00
6:54 PM,32.0,21.0,64,30.22,10.0,North,6.9,-,N/A,,Overcast,360,2013-03-07 23:54:00
7:54 PM,32.0,19.9,61,30.22,10.0,North,4.6,-,N/A,,Overcast,10,2013-03-08 00:54:00
8:54 PM,30.9,19.9,64,30.21,10.0,North,3.5,-,N/A,,Mostly Cloudy,360,2013-03-08 01:54:00
9:54 PM,30.9,19.9,64,30.19,10.0,North,4.6,-,N/A,,Clear,360,2013-03-08 02:54:00
10:54 PM,30.9,19.9,64,30.17,10.0,North,6.9,-,N/A,,Partly Cloudy,360,2013-03-08 03:54:00
11:54 PM,30.9,19.9,64,30.17,10.0,North,5.8,-,N/A,,Overcast,360,2013-03-08 04:54:00